Location: *
(50.3440°N, 18.6237°E)
Time: 17:19:27
(UTC+00:00)

Cosmos 1328 Rocket - Pass Details

Date: 30 November 2020
Orbit: 602 x 626 km, 82.5° (Epoch: 17 January)

Event Time Altitude Azimuth Distance (km) Brightness Sun altitude
Rises 15:42:07 0° 161° (SSE) 2,847 7.0 -8.7°
Reaches altitude 10° 15:44:31 10° 150° (SSE) 1,952 6.1 -9.1°
Maximum altitude 15:48:16 30° 89° (E) 1,105 4.4 -9.6°
Drops below altitude 10° 15:52:04 10° 29° (NNE) 1,978 5.7 -10.2°
Enters shadow 15:53:17 - 23° (NNE) 2,426 6.2 -10.4°
